Theta_e
334 334 334 335 335 335 334 334 334 332 331 331 332 333 333 333 333 333 333 333 333 332 332 330 328 328 329 329 330 330 331 331 331 330 330 333 332 331 328 324 326 329 329 328 329 330 332 334 335 335 335 334 333 333 332 331 330 330 329 328 328 328 328 327 326 325 325 325 325 325 324 324 324 324 324 324 324 323 323 323 323 321 320 320 320
334 334 333 334 334 333 333 333 333 334 333 332 332 332 332 333 333 333 333 332 332 332 331 331 329 327 327 327 328 329 330 330 331 330 329 333 333 332 329 326 327 330 330 330 330 329 329 332 334 336 336 336 335 334 333 333 332 331 330 329 329 328 328 327 327 327 326 325 324 325 324 324 324 324 324 324 324 324 323 323 323 323 322 321 320
334 333 333 333 333 333 332 331 332 334 334 334 334 333 332 332 333 333 333 332 332 332 331 332 332 332 330 329 329 329 328 329 329 329 329 331 332 332 331 328 328 328 328 330 331 331 330 329 331 333 335 336 336 335 335 334 334 333 331 330 330 329 329 328 326 327 327 325 324 324 324 324 324 324 324 324 324 323 323 323 323 323 323 322 321
332 333 333 333 332 332 332 332 333 333 333 333 333 333 333 332 332 332 332 333 333 332 333 332 332 335 335 334 333 333 331 330 329 328 329 328 330 332 331 331 330 328 326 328 330 331 332 331 330 331 332 334 335 335 335 335 335 335 333 332 331 331 330 329 328 327 327 326 325 324 323 323 324 324 324 324 324 323 323 323 323 323 323 323 322
331 332 332 332 331 331 331 332 333 333 333 332 332 332 333 333 332 332 333 332 332 333 333 331 332 336 336 335 335 334 333 331 330 329 329 329 330 333 332 331 331 330 328 328 329 330 332 333 333 332 331 332 334 335 336 337 337 336 335 334 333 333 332 332 331 330 329 328 327 326 325 324 324 323 323 324 324 324 324 323 323 323 323 323 322
330 331 332 330 331 331 330 332 333 332 333 332 332 332 332 332 332 333 333 332 331 332 331 330 332 336 336 336 335 333 332 331 330 330 330 330 330 333 335 334 332 332 332 332 332 330 331 333 334 334 334 333 333 334 336 337 337 337 336 336 335 335 334 334 333 332 331 330 329 329 328 327 326 325 324 323 323 323 323 323 323 323 323 323 322
332 330 330 330 331 330 329 332 333 332 333 333 332 333 332 332 333 332 332 332 332 332 331 330 330 333 337 336 332 331 332 331 331 331 330 330 330 331 335 336 336 336 336 336 335 334 332 333 334 335 336 335 334 333 333 335 337 338 338 338 337 337 336 335 335 334 333 332 331 331 330 329 328 327 326 325 324 323 322 322 322 322 322 322 321
330 330 330 330 330 330 329 331 331 330 331 332 332 333 332 333 333 332 332 332 332 332 331 331 330 330 333 334 331 330 332 331 330 331 330 330 330 330 332 334 336 338 338 338 337 336 334 334 335 336 336 336 335 334 333 334 336 337 338 338 338 338 337 337 336 335 334 334 333 332 332 331 330 329 329 327 325 324 323 322 321 321 321 321 320
329 329 330 330 330 330 329 330 330 329 329 330 331 332 332 333 333 332 333 333 333 332 331 331 332 331 331 333 333 330 330 331 330 330 330 330 331 330 331 333 335 336 337 339 339 338 337 336 336 336 336 335 336 335 334 334 334 334 336 338 338 338 338 338 337 337 336 335 334 334 333 333 332 331 331 330 328 326 325 324 323 323 322 322 321
330 329 330 329 329 328 328 328 328 328 328 329 330 331 331 332 332 332 333 333 332 333 331 331 333 332 331 333 335 333 329 329 330 330 331 331 331 331 331 332 335 335 335 337 339 338 338 338 338 337 336 335 334 335 335 335 334 334 335 336 337 338 338 338 337 337 336 336 335 335 335 334 334 333 333 332 331 330 329 327 327 325 325 324 324
331 331 330 330 330 329 329 329 329 330 330 330 330 331 331 331 331 332 332 332 332 332 332 332 332 332 331 332 334 336 334 331 330 330 330 331 331 331 331 332 334 336 336 336 337 337 337 338 338 338 336 333 331 332 333 334 334 334 334 334 334 336 336 336 336 335 335 335 336 336 335 335 335 334 334 334 333 333 332 331 330 329 328 327 327
331 331 331 330 331 330 331 331 330 331 331 329 329 330 330 330 330 330 331 331 331 331 332 331 330 330 331 331 332 334 335 334 332 331 331 331 332 331 332 331 331 333 334 334 335 335 336 338 338 336 335 332 329 328 329 329 329 329 330 331 332 332 333 333 334 333 333 334 334 335 335 335 335 335 335 334 334 334 333 333 332 332 331 330 330
329 330 330 330 330 330 331 331 331 331 330 328 328 328 329 330 330 329 330 330 329 329 329 327 328 330 330 330 330 330 331 331 330 332 332 331 332 332 332 331 332 333 332 331 332 334 335 337 336 334 335 335 332 330 328 327 326 326 327 328 329 329 329 329 330 331 331 331 332 333 333 334 334 334 335 334 335 335 334 334 334 333 333 333 332
328 328 328 329 329 330 329 330 331 331 331 331 330 328 328 329 329 328 329 330 329 328 327 326 328 330 330 330 331 331 330 328 328 331 332 331 331 332 332 332 332 333 332 331 331 333 334 335 334 332 333 336 336 334 331 330 329 330 330 330 330 329 328 328 328 329 329 330 330 330 331 332 333 333 334 335 335 335 335 335 335 334 334 334 333
327 327 327 327 328 329 329 329 330 330 330 332 332 330 329 329 329 329 330 329 328 328 327 328 328 329 329 331 332 332 333 332 330 330 330 331 330 330 331 331 331 331 331 333 333 334 333 333 333 332 332 335 336 334 333 332 332 332 332 332 331 331 331 330 328 328 329 329 330 330 331 332 332 333 333 334 335 335 335 335 335 335 335 335 335
325 327 326 326 327 327 327 327 328 329 329 330 330 329 328 330 330 330 330 329 329 328 327 327 328 329 331 331 331 330 332 333 331 329 328 329 330 329 329 328 328 329 329 331 332 332 332 331 331 332 332 332 333 334 335 334 334 334 334 333 333 333 334 333 331 329 328 329 329 330 331 332 333 333 333 334 334 335 335 335 335 335 335 335 335
326 327 326 326 326 326 327 326 326 326 326 327 327 326 327 327 326 327 327 327 328 328 328 328 327 329 330 331 332 332 334 332 331 330 327 327 327 327 328 327 327 328 329 329 330 330 330 330 331 331 332 332 332 333 335 336 336 336 336 335 335 336 336 336 335 333 331 330 329 329 330 331 331 332 332 332 333 334 335 336 335 335 335 335 335
326 326 326 326 326 326 326 326 325 324 324 325 325 323 324 324 324 324 324 323 324 325 327 327 326 328 328 328 330 331 332 331 332 333 330 327 327 325 326 327 327 327 328 328 328 329 330 330 330 330 331 332 333 333 334 335 336 337 337 337 337 337 337 337 337 337 336 334 331 330 330 330 331 332 334 333 333 334 334 335 335 335 335 335 335
326 325 325 325 326 325 325 325 325 324 324 325 324 323 323 323 323 323 323 322 322 323 324 322 324 328 327 327 328 328 328 329 332 335 333 331 330 326 325 325 326 327 326 327 328 329 329 329 329 329 330 331 331 331 332 335 335 335 336 337 336 337 337 337 338 338 338 336 333 332 330 330 331 333 334 335 335 335 336 336 335 335 336 336 336
326 325 325 324 325 324 324 324 323 322 323 324 323 322 322 322 323 322 322 322 321 321 322 321 322 324 323 324 325 324 325 327 329 331 332 332 329 327 325 323 324 325 325 327 328 329 330 329 328 329 329 328 328 329 331 333 333 332 333 335 335 336 336 336 337 337 337 336 334 332 330 330 330 330 331 332 332 333 334 335 335 335 336 336 337
325 325 324 324 324 324 323 323 322 320 321 322 321 321 321 322 322 321 321 322 322 321 321 320 321 321 321 321 321 321 322 323 325 326 328 329 327 325 324 323 325 326 326 327 329 329 329 328 327 327 326 325 326 328 328 329 329 328 328 331 332 333 335 336 337 337 336 336 335 333 331 330 330 330 330 330 330 330 331 332 332 333 333 334 335
325 324 324 323 323 323 323 322 321 319 320 321 320 320 320 320 320 320 320 321 320 320 319 319 319 319 320 320 320 321 322 323 323 322 322 324 325 324 323 324 325 325 325 326 327 327 326 326 326 325 324 324 325 326 324 323 324 326 327 329 331 332 334 336 336 337 337 336 336 335 333 332 331 331 331 331 331 330 330 330 330 331 331 332 332
324 324 323 322 321 321 321 322 320 319 321 321 320 320 319 319 319 319 319 319 319 319 319 319 319 318 318 318 318 320 321 321 322 321 322 324 325 324 323 322 321 320 320 322 321 321 322 322 322 322 322 322 322 321 318 317 322 327 330 330 332 333 334 335 335 336 336 336 335 334 333 332 331 330 330 332 332 332 332 331 331 331 331 331 331
323 324 323 322 322 321 321 321 320 319 320 320 319 319 318 317 318 318 318 319 318 319 319 319 319 319 318 318 317 317 316 317 318 319 321 322 323 324 322 320 321 320 319 320 320 319 319 319 319 319 320 320 319 318 316 317 322 328 331 331 332 333 333 334 334 334 334 333 332 331 330 329 330 330 331 332 333 333 332 332 332 332 331 332 332
324 323 323 323 322 321 321 321 320 318 318 318 317 318 317 315 315 316 317 318 317 317 318 318 318 318 318 318 318 317 317 317 318 317 318 319 320 323 322 320 321 321 320 320 320 319 318 318 317 318 319 319 319 318 317 320 324 328 330 329 329 329 330 330 330 330 331 330 330 329 329 329 329 329 330 331 332 332 332 333 333 333 333 332 333
324 323 323 323 321 320 319 319 319 318 317 316 315 316 316 313 313 314 316 316 316 316 317 317 317 317 317 317 317 317 317 317 317 317 318 318 318 320 321 320 320 320 320 319 318 318 318 318 317 317 319 319 319 319 319 322 325 325 324 324 325 325 325 326 326 327 327 328 328 328 328 328 328 329 329 329 330 330 331 332 332 333 333 333 334
324 323 322 322 320 319 318 317 317 316 316 315 314 315 315 313 313 314 314 314 314 315 316 315 316 316 316 316 316 316 316 316 316 317 317 317 316 317 318 320 320 319 319 319 317 317 317 317 317 317 318 318 318 318 318 319 320 319 317 318 319 319 320 321 322 323 323 324 325 325 325 326 326 327 327 328 328 328 329 330 331 332 332 332 333
323 322 321 320 319 318 318 317 317 316 315 314 314 314 314 313 313 314 314 313 314 314 314 313 315 315 315 314 315 315 315 315 315 315 315 315 315 315 316 317 319 319 319 319 318 318 316 316 317 316 316 316 316 316 316 316 316 315 314 314 314 314 314 314 315 316 316 317 319 320 321 321 322 323 324 325 325 326 327 328 329 330 331 331 331
321 321 320 319 318 317 317 316 316 316 315 314 314 314 314 313 313 314 313 313 314 314 313 312 314 314 314 314 314 314 314 314 314 314 314 314 314 314 314 314 316 317 318 318 318 318 316 315 316 316 316 315 315 315 315 314 314 313 313 313 313 312 312 312 312 312 313 313 315 316 316 316 316 318 320 321 322 323 324 325 326 327 329 330 331
320 320 319 318 318 317 317 316 316 315 315 314 314 314 314 313 313 313 312 312 313 313 312 312 313 314 314 313 313 313 313 313 313 313 313 313 313 313 313 313 313 314 316 316 316 315 315 315 315 314 314 314 314 314 314 314 313 313 313 313 313 313 312 313 313 312 312 313 313 313 313 312 312 313 313 314 315 315 317 318 319 322 325 327 328
320 319 319 318 317 317 317 317 316 315 315 315 314 314 313 313 313 313 312 312 311 311 311 312 313 313 313 312 312 312 312 312 312 312 312 312 312 312 312 312 312 313 313 314 315 314 313 313 313 313 313 313 313 313 313 313 313 313 313 313 314 314 314 314 314 314 314 313 314 314 314 313 313 313 312 311 310 310 310 310 311 315 321 324 325
319 319 318 317 317 317 317 317 316 316 315 315 315 314 313 313 312 312 312 311 311 311 312 312 312 312 311 311 311 311 311 311 311 311 311 311 311 311 311 311 311 312 312 313 314 313 312 312 312 312 312 312 312 312 312 313 313 313 313 313 313 313 313 313 313 313 313 313 313 314 314 314 314 314 313 313 312 311 310 310 311 313 317 320 321
319 319 318 318 317 317 317 317 317 316 315 315 314 314 313 312 312 312 312 312 311 311 312 311 311 311 311 311 311 310 310 310 310 310 310 310 310 310 310 310 310 311 311 311 312 312 311 311 311 311 311 311 311 311 311 311 311 311 311 311 311 311 311 312 312 313 313 314 313 313 313 313 313 313 313 313 313 312 312 312 312 313 314 316 318
320 319 319 318 317 317 317 317 316 316 315 314 314 313 312 312 312 312 312 312 311 311 311 311 311 311 310 310 310 310 309 309 309 309 309 309 310 310 310 310 310 310 310 311 311 311 311 311 311 311 310 310 310 310 310 310 310 310 310 310 310 311 311 312 312 313 313 314 314 314 314 313 313 313 313 313 313 313 313 312 312 313 314 315 317
320 319 319 319 318 317 317 316 316 315 314 314 313 312 312 312 311 310 311 312 311 311 311 310 310 310 309 309 309 309 308 308 309 309 309 309 309 310 310 310 310 310 310 310 310 311 311 310 310 310 310 310 309 309 309 309 309 309 310 310 310 310 311 311 311 312 313 313 313 314 314 314 314 314 314 313 313 314 313 313 313 313 313 314 315
321 320 319 318 318 317 317 316 316 315 314 313 313 312 312 311 311 310 311 311 311 311 310 310 309 309 309 308 308 308 308 308 308 308 309 309 309 309 309 309 309 309 309 309 309 309 309 309 309 309 309 309 309 309 309 309 309 309 309 309 309 309 310 310 311 311 312 312 312 312 313 313 314 314 314 314 314 314 314 314 314 314 314 314 314
321 320 319 318 317 317 317 316 316 315 314 313 312 312 311 311 311 311 310 310 310 310 309 309 309 309 308 308 308 308 308 308 308 308 308 309 309 309 309 309 309 308 308 308 308 308 308 309 309 308 308 308 309 309 309 309 309 309 309 309 309 310 310 310 310 310 310 310 310 311 311 312 313 313 314 314 315 316 315 315 315 315 315 315 315
321 320 319 318 317 317 316 316 315 315 314 313 312 311 310 309 310 311 311 310 310 309 308 308 308 308 308 308 308 308 308 308 308 308 308 308 308 308 308 308 308 308 308 307 307 307 307 308 308 308 308 308 309 309 309 309 309 309 309 309 309 309 308 308 308 309 309 309 309 310 310 311 312 313 314 314 315 316 316 316 316 316 317 317 317
320 320 319 318 317 317 316 316 315 314 313 312 311 311 310 309 310 310 310 309 309 309 309 308 308 308 307 307 307 307 308 308 307 307 307 307 307 307 307 306 307 307 307 307 307 307 307 307 307 307 307 308 308 308 308 308 308 308 308 308 308 307 307 307 307 307 307 308 308 309 310 311 311 312 312 313 313 314 315 315 315 316 317 318 319
319 319 319 318 317 316 315 315 315 313 312 312 311 310 310 309 310 310 309 309 309 308 308 308 307 307 307 307 307 307 307 306 306 305 305 305 305 305 305 304 304 305 305 305 306 306 306 306 306 306 306 307 307 307 307 307 307 307 307 306 306 306 306 306 305 305 306 306 307 308 308 309 309 309 309 310 311 312 313 313 314 315 316 317 319
319 319 318 318 317 316 315 314 314 313 312 311 311 311 310 308 308 309 309 309 309 308 308 307 307 307 307 307 307 307 306 305 304 304 303 303 303 303 303 302 302 303 303 303 304 304 304 304 305 305 305 306 306 306 306 306 306 306 305 305 305 305 305 304 304 304 305 305 305 305 306 306 306 306 307 308 309 309 310 310 311 313 314 314 316
319 318 318 318 317 316 314 314 313 313 312 312 311 310 308 306 303 304 306 308 308 308 308 307 307 306 306 307 306 306 306 305 304 303 303 302 302 302 301 301 300 301 301 302 302 303 303 303 304 304 304 305 305 305 305 305 305 305 305 304 304 304 304 304 304 304 304 304 304 304 304 304 304 305 305 306 307 308 309 309 310 311 312 313 314
319 318 318 318 317 315 315 314 313 313 312 312 311 310 308 304 299 298 302 306 307 307 307 307 307 306 306 306 306 305 305 304 304 304 303 302 302 301 301 300 300 300 300 301 302 302 302 302 303 303 303 304 304 304 304 304 304 304 304 304 304 304 304 303 303 303 303 303 303 303 303 303 304 304 305 306 307 308 309 310 311 312 312 313 314
319 318 318 317 316 315 314 313 313 313 312 313 312 310 308 305 298 296 300 305 306 306 307 307 306 306 306 305 305 305 304 304 304 303 303 303 303 302 301 301 301 301 300 301 301 301 301 302 302 302 303 303 303 303 304 304 303 303 303 303 303 303 302 302 302 303 302 302 302 303 303 304 304 305 306 307 308 309 310 311 311 312 313 314 315
318 318 317 316 315 315 314 313 313 313 313 313 312 310 308 305 299 296 299 302 304 306 307 306 306 306 305 305 304 304 304 304 304 303 303 303 303 302 302 301 302 302 302 301 301 301 301 302 302 302 302 303 303 303 303 302 302 302 302 302 301 301 301 301 302 302 302 302 303 303 304 304 305 306 307 308 309 310 310 312 314 316 317 318 318
319 318 316 315 315 314 313 313 313 313 313 313 311 309 308 305 299 296 298 300 303 306 307 306 305 305 305 304 304 304 304 304 304 303 303 302 302 301 301 301 303 304 304 303 302 302 302 301 302 302 303 303 303 302 302 301 301 301 301 301 301 301 301 301 301 302 302 303 303 304 305 305 306 307 308 309 309 310 312 314 317 318 319 319 320
318 318 316 315 315 314 314 313 313 313 312 312 310 309 308 305 300 296 296 298 302 306 306 305 305 304 304 304 304 304 304 304 304 303 302 302 301 300 300 302 303 304 304 304 303 303 303 302 302 302 302 302 302 302 302 301 301 301 301 301 301 301 301 302 302 302 303 303 304 305 306 306 307 307 309 309 310 312 314 316 316 317 317 318 318
318 318 316 316 315 314 314 314 314 313 312 311 310 308 308 306 300 296 296 299 303 306 306 305 305 304 304 304 304 304 304 303 303 303 302 301 300 299 300 302 304 304 304 304 304 304 303 303 301 300 300 301 301 302 302 301 301 301 301 301 301 301 302 302 303 303 304 303 304 305 306 306 307 307 308 309 310 313 315 315 314 313 313 314 314
318 317 316 315 315 314 314 313 313 313 312 311 310 308 308 306 300 295 296 301 305 306 305 305 305 304 304 304 304 304 303 303 303 302 302 301 300 299 300 302 303 304 305 305 304 302 302 301 298 297 300 302 302 302 302 301 301 301 300 300 301 302 302 303 303 304 304 304 304 304 304 305 305 305 307 308 310 313 314 312 311 311 310 310 311
316 316 316 315 314 313 312 313 313 313 312 311 310 308 307 306 300 295 297 303 306 306 306 305 305 305 305 305 305 304 303 303 303 302 302 301 298 298 300 301 301 302 304 304 302 301 301 298 296 298 302 304 304 304 304 303 302 301 300 300 301 302 302 303 304 304 303 303 304 303 303 303 303 304 305 307 309 313 313 312 311 311 309 308 308
316 315 315 314 313 313 313 314 314 313 312 311 310 308 307 306 300 294 296 302 306 306 306 306 305 305 305 305 305 304 303 303 302 302 302 299 295 294 296 298 299 300 302 303 302 301 298 294 296 301 304 304 305 305 305 304 303 302 302 302 302 302 302 303 304 303 303 303 303 303 302 303 303 303 304 306 308 312 313 312 311 311 310 308 308
Wind_Speed
3 3 2 3 2 1 2 3 3 3 3 3 3 5 7 9 10 11 10 11 15 15 15 14 13 13 13 13 13 13 12 13 13 10 11 12 12 12 11 11 12 11 10 10 10 10 11 12 12 13 13 13 12 11 11 12 11 12 11 12 12 12 12 12 10 9 9 10 11 11 11 10 10 10 10 10 10 10 10 10 10 10 9 9 8
3 3 2 2 2 2 3 5 3 1 3 4 5 5 5 7 7 9 9 10 14 14 14 16 12 11 12 11 11 12 13 13 12 11 10 10 11 11 12 12 12 12 11 11 11 11 10 11 12 13 13 14 13 11 11 12 11 12 12 12 12 13 13 12 12 10 10 10 11 11 11 11 11 11 11 12 11 11 11 11 11 11 11 10 9
2 1 2 3 1 2 3 5 6 4 5 6 6 6 6 6 6 8 9 10 14 15 13 15 15 10 9 10 9 9 11 12 12 13 12 10 11 12 12 13 13 12 11 11 11 12 11 11 12 13 13 14 13 13 13 12 12 12 12 13 12 12 12 12 12 11 10 10 11 11 11 12 12 12 12 12 13 13 13 12 12 12 12 12 12
2 2 2 1 1 2 3 4 5 5 6 6 7 8 7 6 6 8 10 11 13 15 12 14 17 12 7 9 9 6 7 8 9 11 11 11 12 14 16 16 15 14 13 12 12 12 12 12 12 12 13 14 14 14 14 13 14 14 12 12 12 12 12 12 12 11 11 11 11 11 11 11 12 13 13 13 13 13 13 13 13 13 13 13 13
2 2 3 2 3 4 4 4 3 4 5 5 6 8 9 8 7 7 9 11 12 14 14 18 20 13 8 9 10 9 8 8 8 7 8 8 6 11 18 18 15 15 14 13 13 13 13 13 13 13 13 13 14 15 15 15 15 15 14 14 13 12 12 12 12 12 11 11 11 11 11 11 11 12 13 14 14 14 15 14 14 14 14 15 14
1 1 2 1 2 4 4 3 2 2 2 4 5 4 6 9 8 6 7 9 11 14 16 22 23 12 8 10 11 13 13 12 12 10 10 8 4 3 11 17 17 15 14 14 13 14 14 14 13 13 13 13 14 15 16 16 16 16 15 15 15 14 13 13 13 12 12 12 12 11 12 12 12 11 12 13 14 15 16 16 16 16 16 16 16
1 1 1 1 1 1 2 3 2 2 2 4 5 3 3 4 5 4 5 6 9 12 13 20 23 15 9 11 11 13 13 13 14 14 13 12 8 3 3 9 13 14 15 15 14 15 15 15 14 13 13 14 15 16 16 17 17 16 16 16 16 16 14 13 13 13 12 12 12 12 12 12 12 12 12 12 13 13 14 15 16 17 17 17 17
2 2 1 0 2 3 2 2 3 4 3 3 3 3 4 5 3 3 4 5 6 8 8 10 16 18 14 11 10 10 11 11 13 13 14 13 11 8 8 10 11 12 15 16 15 15 16 15 14 14 14 14 15 16 18 18 18 18 17 17 17 18 17 15 14 14 14 13 12 12 12 12 12 12 12 12 13 13 13 14 15 15 16 17 17
5 5 4 4 4 4 3 2 3 4 4 4 4 4 6 7 6 4 6 7 6 7 8 6 6 11 14 13 10 9 9 9 11 11 12 11 10 11 12 12 11 12 15 18 16 14 16 16 15 15 14 15 15 16 18 19 19 19 19 18 19 19 19 18 16 16 15 15 14 13 13 13 13 13 12 12 12 13 13 13 13 14 14 15 16
6 6 5 6 6 4 4 3 2 2 3 4 3 3 3 3 4 4 5 8 8 7 7 7 6 8 11 10 10 10 8 8 9 9 9 9 7 8 9 9 10 12 17 19 17 14 15 15 15 15 14 15 16 17 17 18 19 20 20 20 20 20 21 21 19 17 16 16 16 15 14 14 14 14 13 13 13 13 13 14 14 14 13 14 14
6 6 5 5 6 5 4 4 3 2 2 2 2 1 1 0 2 3 3 6 6 6 6 6 8 8 9 8 8 9 8 7 7 7 7 6 6 7 8 9 11 14 18 19 16 15 15 15 15 15 15 15 16 17 18 18 19 19 19 20 20 20 21 21 21 19 17 17 17 17 16 15 15 15 14 14 14 14 14 14 14 15 14 15 15
4 4 5 4 4 4 4 3 3 2 2 2 3 3 2 1 2 3 4 4 5 5 6 7 9 8 8 8 9 9 7 7 8 8 7 6 7 10 10 10 12 15 18 17 15 16 15 15 16 16 16 16 16 16 17 17 17 17 18 18 19 19 20 20 21 20 19 18 18 18 18 17 17 16 16 15 15 14 14 15 15 16 16 16 16
3 3 3 3 3 3 3 2 2 1 2 4 5 4 3 3 3 3 3 3 4 5 6 7 8 8 8 9 11 10 8 8 8 8 8 7 7 10 11 11 15 18 18 16 15 16 16 17 19 18 18 18 17 17 17 16 16 16 17 17 17 18 19 20 20 21 20 19 19 19 19 18 18 18 18 17 17 16 16 16 16 16 17 17 18
3 3 4 3 3 3 3 3 2 2 2 3 3 4 3 2 1 2 2 3 3 4 6 5 3 5 6 7 9 9 9 8 6 6 6 5 6 9 10 11 16 18 18 17 16 16 17 19 20 20 19 18 18 18 18 18 18 18 17 17 17 18 19 20 21 21 21 21 20 20 20 20 19 19 19 19 19 19 18 18 18 18 18 19 19
3 4 5 5 4 4 4 4 4 4 3 3 3 4 4 3 3 2 3 4 4 4 4 3 2 3 4 3 3 5 6 6 6 7 6 5 6 8 7 9 15 16 15 17 19 20 20 19 20 21 22 21 20 20 19 19 19 19 18 17 18 18 19 20 22 22 23 23 23 23 22 22 22 22 21 21 21 21 21 21 20 20 20 20 21
5 5 5 5 5 5 5 5 5 5 5 5 5 5 5 4 5 4 5 5 5 4 4 2 2 3 1 0 1 1 3 4 8 11 9 5 6 8 8 10 13 14 12 14 17 19 19 16 16 18 21 22 21 17 15 15 15 15 16 16 16 17 18 19 20 22 23 24 24 25 25 24 24 24 24 23 23 23 23 23 23 23 22 22 22
6 6 6 6 5 6 5 5 6 5 6 6 5 6 5 5 6 6 6 7 6 6 5 4 3 1 1 2 1 1 2 3 6 8 9 8 7 9 11 12 14 12 11 12 13 15 16 15 15 14 13 15 15 13 11 10 9 11 12 13 14 15 16 17 17 19 20 22 23 24 25 25 26 26 26 26 25 25 25 25 25 24 24 24 23
6 6 6 6 6 6 6 6 5 5 6 6 5 5 5 6 7 6 6 7 6 6 6 6 4 2 1 1 2 2 3 3 3 3 8 9 7 10 12 13 16 14 12 13 11 11 14 13 14 12 9 7 9 10 13 11 10 11 12 12 13 13 14 15 15 15 16 19 21 22 23 24 25 24 25 25 25 25 25 26 25 25 25 25 24
7 6 6 6 5 5 5 5 5 5 4 5 5 5 5 6 6 6 6 6 6 6 6 8 6 3 3 3 4 5 6 5 3 2 4 5 6 11 12 12 14 14 15 16 14 12 10 9 9 10 9 8 7 9 12 11 10 11 12 14 16 16 15 16 15 13 13 14 16 18 20 22 23 23 23 23 23 23 24 24 25 25 25 24 24
7 6 5 5 5 4 4 5 4 4 3 4 5 5 5 5 5 5 5 5 5 5 5 7 6 5 5 4 5 7 8 10 11 8 4 2 6 9 11 12 12 12 13 14 13 13 13 11 10 9 8 8 9 10 11 11 11 12 14 16 17 17 17 17 16 14 12 13 14 16 17 19 20 21 22 23 24 24 24 24 25 25 25 24 24
7 6 5 5 4 3 3 4 3 3 4 5 5 4 4 4 4 4 5 4 4 4 5 5 7 7 7 7 7 7 8 9 10 9 5 3 3 4 8 10 9 12 13 11 10 12 13 13 11 11 11 11 11 11 12 14 15 16 17 18 17 17 17 16 16 14 14 15 16 16 17 17 18 19 21 22 23 24 24 25 25 25 25 25 25
9 7 6 5 4 3 3 4 3 4 4 4 4 4 4 4 5 4 4 4 4 3 4 4 5 6 7 8 8 8 7 6 8 9 7 5 4 4 8 9 6 7 9 9 8 10 12 12 11 11 11 9 9 11 13 16 17 16 16 17 17 17 16 15 14 15 16 16 17 17 18 18 19 19 20 20 21 22 22 23 24 24 24 25 25
10 9 7 5 5 4 4 4 3 4 4 4 4 4 4 4 4 4 4 4 4 4 3 3 4 5 6 7 8 9 8 6 9 10 7 4 4 3 8 11 10 12 12 11 10 8 9 10 10 12 12 12 12 13 15 16 14 12 11 11 13 15 14 13 14 15 17 17 17 18 19 19 20 20 20 20 20 21 21 22 22 23 23 23 23
9 9 8 7 6 5 5 3 2 3 3 4 4 4 4 5 5 5 4 4 5 5 5 5 5 5 5 6 7 8 8 8 10 10 8 7 6 3 6 10 10 10 14 15 14 11 11 12 13 13 13 13 13 13 15 13 10 8 8 9 10 10 10 11 12 14 15 16 17 18 19 19 20 20 19 19 19 20 21 22 22 23 23 23 23
10 9 9 8 7 6 5 4 3 3 3 4 4 4 4 5 6 6 6 5 5 6 5 6 7 6 6 6 6 6 8 9 10 10 10 10 8 4 6 9 8 8 12 14 13 13 12 12 13 13 12 10 9 11 12 8 4 4 4 5 6 6 7 8 10 12 14 15 16 17 18 18 18 19 18 18 18 20 21 22 22 23 23 24 23
11 10 9 9 8 7 7 6 5 4 3 3 4 3 4 5 6 6 6 6 6 6 6 7 7 7 7 7 6 7 8 8 9 9 8 8 9 7 6 8 9 9 10 11 12 12 11 11 12 12 9 7 8 9 8 4 2 3 6 6 7 6 7 7 8 10 12 14 15 16 17 18 18 19 19 19 19 19 20 21 22 23 23 24 24
11 11 10 10 9 8 8 7 7 5 4 3 3 3 3 6 6 5 6 6 7 6 6 7 8 8 8 8 7 8 8 7 7 8 7 7 10 10 7 5 6 7 6 8 11 11 11 12 12 12 11 10 9 8 8 7 4 8 12 10 8 8 8 8 9 10 12 14 16 17 18 19 20 20 21 21 21 21 20 21 21 22 22 23 24
12 12 11 10 10 9 9 8 7 6 4 3 3 2 3 5 5 5 6 6 6 6 7 8 8 8 8 8 8 8 9 8 7 9 8 7 8 10 10 6 4 4 3 5 6 7 11 12 12 14 14 15 15 12 11 11 11 15 17 14 12 13 13 13 14 16 17 19 19 19 19 20 21 23 24 24 24 23 23 22 22 22 22 22 23
13 12 11 11 10 9 9 9 8 6 5 3 2 2 3 4 5 5 6 6 6 6 7 7 7 8 8 8 8 9 9 8 8 9 9 7 7 10 12 11 8 5 3 3 4 5 10 12 13 14 15 17 19 18 17 18 20 22 22 19 18 18 17 17 18 19 20 21 22 23 24 26 27 28 28 29 28 27 25 25 24 24 23 22 22
14 13 12 11 10 10 9 9 8 7 5 3 2 1 1 3 4 4 5 5 5 5 7 7 7 7 7 7 8 9 9 9 9 10 9 8 8 9 10 10 10 8 5 3 4 7 11 13 13 15 18 20 20 19 19 21 23 24 23 23 22 21 20 19 19 20 22 23 24 26 28 28 28 29 29 31 31 31 30 29 28 26 25 24 23
15 14 13 12 11 10 9 9 8 7 6 4 2 1 1 3 3 3 4 5 5 5 6 5 5 6 6 6 7 8 8 9 9 8 8 9 9 10 10 10 10 10 10 7 4 7 12 14 15 17 18 19 19 19 19 20 20 21 21 21 19 19 19 19 19 20 21 23 24 25 25 24 24 25 25 26 27 28 29 29 30 28 27 25 24
16 15 14 12 11 10 9 9 8 7 6 4 3 2 1 2 2 3 4 4 4 5 5 4 5 6 6 6 6 7 8 9 9 7 7 9 9 10 11 12 11 11 12 11 6 7 14 16 16 16 15 16 17 18 18 17 17 17 18 18 18 19 20 20 21 20 20 21 21 22 23 23 24 24 23 23 23 23 23 24 25 26 27 26 25
16 15 14 13 11 11 10 9 8 7 6 5 4 3 1 2 3 3 3 3 3 4 4 4 5 5 5 6 6 6 7 8 8 8 8 9 8 9 10 11 12 11 12 13 9 8 13 15 14 15 15 15 16 16 17 18 18 18 18 19 19 19 19 20 20 19 19 19 20 21 22 22 22 22 22 21 21 22 22 22 23 24 26 26 26
16 15 14 13 12 11 10 9 8 7 6 5 4 3 2 2 2 2 2 2 3 4 4 4 5 5 4 5 6 6 6 7 8 8 9 9 9 10 10 10 12 12 11 13 11 9 12 14 16 17 16 16 17 17 17 19 19 19 19 18 18 18 18 18 19 19 18 19 20 20 20 19 19 20 22 23 23 23 23 23 24 24 26 26 27
16 15 14 13 12 11 10 10 9 8 6 5 4 3 2 2 1 2 3 3 3 4 4 4 5 5 5 5 6 7 7 8 9 9 9 10 9 10 11 11 13 14 13 14 14 12 12 14 16 16 16 18 19 18 18 18 18 18 18 17 17 17 18 19 19 19 18 20 21 20 18 18 18 19 20 22 23 24 24 24 24 25 26 27 28
15 15 14 13 12 11 10 10 9 8 7 6 5 4 4 3 2 2 2 3 3 4 5 5 6 6 6 6 6 6 7 7 8 9 8 8 8 8 10 11 11 13 14 15 15 14 13 13 14 15 17 18 19 18 18 18 17 16 17 17 17 16 16 17 17 18 18 20 22 21 20 19 17 18 19 19 20 22 22 22 22 23 24 25 27
15 14 14 13 12 11 10 10 9 9 8 7 6 4 4 3 3 3 2 3 3 4 5 5 6 7 7 7 7 6 6 7 7 8 8 8 8 8 9 10 11 12 13 14 15 15 14 13 14 15 16 17 17 17 17 17 17 18 17 17 16 15 16 18 18 19 20 21 23 24 24 22 19 18 20 20 21 21 20 20 21 22 23 25 26
15 14 12 13 13 12 11 10 9 9 9 8 6 5 4 3 3 3 3 3 3 4 5 6 6 7 7 7 8 8 7 7 6 5 6 6 5 5 7 9 10 10 11 12 12 13 14 13 13 14 14 15 15 16 16 15 17 18 18 17 17 17 18 20 20 20 19 20 22 23 23 22 21 19 20 20 19 18 17 18 20 21 23 25 26
13 15 12 11 12 12 11 11 11 9 8 7 6 5 4 4 4 3 2 3 4 5 5 6 6 6 6 6 7 6 5 4 2 2 3 4 3 3 4 7 9 10 10 10 11 11 12 12 12 12 13 14 14 15 15 14 15 16 17 18 19 19 19 19 21 22 21 21 22 21 20 20 20 20 21 21 20 17 17 18 19 19 20 22 21
11 14 14 12 12 13 12 11 12 10 8 7 7 7 5 4 4 3 3 4 5 5 6 6 6 6 7 6 5 4 3 3 3 4 5 5 5 4 3 5 9 11 10 10 11 11 10 11 11 11 13 14 13 14 14 14 15 15 16 18 19 20 20 20 21 22 22 22 22 22 21 21 23 24 24 25 24 22 22 22 21 20 20 21 19
14 14 15 15 15 16 14 10 10 11 10 8 8 9 7 5 4 3 3 4 4 6 7 7 6 6 7 6 5 4 5 7 8 8 7 6 6 5 5 5 7 9 10 9 10 10 9 10 10 10 12 12 12 14 14 14 14 15 16 17 17 19 21 22 21 20 19 20 22 23 22 22 24 26 25 25 25 24 24 24 22 21 22 24 23
18 16 16 17 16 16 16 12 11 12 12 12 11 11 10 7 6 5 4 3 5 7 7 7 7 6 6 7 7 6 6 7 8 7 5 4 4 5 5 5 5 7 7 8 8 8 8 8 9 9 10 10 11 13 13 13 14 14 15 16 16 18 19 19 19 18 17 19 22 24 24 23 24 25 25 24 23 23 24 23 21 21 23 24 23
19 18 18 17 14 12 14 13 13 13 14 14 15 13 11 8 6 6 6 4 5 7 7 7 7 6 6 7 6 7 7 6 6 5 4 4 4 4 4 3 4 5 5 5 6 7 7 7 8 8 8 9 10 12 13 13 13 14 15 15 15 16 16 15 16 17 18 20 23 24 24 23 23 23 24 23 23 24 24 24 24 24 24 23 22
21 19 19 18 14 12 13 13 14 16 16 15 15 14 12 8 5 5 6 6 5 7 8 8 7 6 6 6 6 6 6 5 5 5 5 6 5 5 5 5 6 7 7 7 6 6 5 5 6 7 7 8 9 11 12 13 13 14 14 14 14 14 14 14 14 18 21 23 23 22 23 25 23 23 25 24 24 24 23 23 24 25 26 25 25
22 21 20 19 16 15 16 15 14 16 18 17 16 15 12 8 4 4 6 6 6 8 8 7 7 6 6 6 7 6 6 5 5 4 5 5 5 5 7 9 10 10 10 10 8 7 6 6 6 6 6 7 9 11 11 12 14 13 11 12 13 13 14 14 16 21 24 24 22 21 22 24 23 22 23 23 24 23 20 19 20 20 20 21 20
23 24 22 21 19 18 19 17 15 15 17 17 16 15 12 7 4 4 5 7 7 8 8 7 6 6 6 7 7 6 6 6 5 5 4 3 5 6 8 12 13 11 8 9 9 9 10 10 10 8 7 9 11 13 12 11 11 11 9 11 12 12 14 15 17 22 23 22 21 18 17 20 22 21 22 23 24 21 15 14 16 16 17 17 17
24 25 25 23 22 20 19 18 16 15 15 16 16 16 12 7 5 4 5 7 8 8 7 7 6 7 7 7 7 6 6 7 7 7 6 6 8 8 8 11 12 8 7 9 10 10 9 9 10 10 11 14 15 15 12 10 9 9 9 10 11 12 14 15 16 19 19 18 19 16 15 18 20 20 21 24 25 19 10 9 15 17 17 16 15
24 25 25 24 24 23 21 19 17 15 14 16 17 16 12 7 6 6 6 7 9 9 8 7 6 7 8 8 8 7 7 9 9 8 7 7 8 8 8 9 9 7 8 10 10 7 6 7 9 11 13 14 14 14 14 12 11 9 8 10 11 12 13 13 15 17 18 18 18 16 15 17 19 21 22 24 26 17 7 11 17 18 18 18 17
22 25 26 25 26 26 24 21 18 15 14 15 17 16 12 9 7 7 7 8 9 10 10 8 7 8 9 9 9 8 9 11 11 9 8 7 7 6 7 8 8 8 8 6 4 3 5 10 14 14 11 12 14 15 15 14 13 12 11 12 12 11 11 11 12 16 20 19 16 16 17 16 19 22 22 24 23 14 11 17 20 20 21 23 23
21 24 26 24 22 23 24 22 19 17 16 16 17 16 13 10 9 8 8 9 11 12 11 9 9 10 11 11 10 10 10 12 11 9 8 7 6 5 6 7 8 9 7 3 4 6 10 14 15 12 8 10 14 16 14 12 12 13 14 13 11 10 10 10 10 15 20 17 13 16 17 16 17 20 21 22 19 11 13 15 14 16 21 25 28
21 23 24 24 22 22 22 21 20 19 18 17 18 17 15 12 11 11 11 11 12 14 12 10 11 13 13 13 14 13 12 12 11 10 9 9 8 7 7 7 8 9 8 8 9 13 16 15 11 9 9 11 14 14 10 8 8 10 10 8 8 9 10 11 12 12 12 11 13 17 17 16 17 17 17 16 12 9 11 12 10 12 16 20 22
Wind_Direction
125 127 166 198 198 239 273 268 242 236 268 268 261 259 252 251 247 247 255 259 261 268 279 267 228 221 232 220 211 213 220 237 249 243 218 205 202 200 204 208 207 205 203 200 197 195 193 194 199 202 204 212 216 215 213 212 212 216 223 226 231 234 233 235 232 231 229 222 221 221 222 225 228 231 236 243 245 245 244 247 253 254 250 248 251
142 143 153 178 207 274 310 333 341 334 321 306 296 297 289 280 266 269 276 276 277 269 271 284 265 222 230 233 220 216 217 223 237 252 241 208 203 205 205 205 205 205 208 209 207 205 201 199 203 204 205 211 218 222 219 219 217 218 228 234 236 237 240 242 240 243 241 231 226 226 226 227 230 230 231 238 244 246 246 246 251 257 258 255 254
171 154 121 155 188 274 298 347 359 342 322 304 299 300 294 286 276 284 291 289 293 284 266 279 282 250 229 237 238 227 222 224 227 238 244 228 218 216 210 208 207 207 209 212 213 213 211 207 208 208 208 211 215 219 221 224 224 224 230 235 239 242 245 246 245 248 247 240 234 232 233 231 233 234 235 237 239 243 244 243 246 251 256 258 259
107 93 92 129 74 6 339 0 351 318 312 310 301 290 279 274 278 284 291 298 300 292 280 275 275 264 243 246 260 259 232 230 227 229 240 238 228 223 214 208 209 213 216 220 219 219 218 215 215 214 214 214 214 218 221 223 223 228 235 237 240 245 248 249 249 250 248 246 242 240 239 236 235 235 237 239 240 243 245 244 245 247 252 255 259
94 75 55 18 24 36 29 24 337 296 300 319 310 287 277 272 280 285 284 296 298 289 288 279 268 259 260 259 256 258 251 244 237 237 250 250 245 232 217 208 209 214 217 224 226 224 222 219 218 218 220 220 219 219 221 222 224 230 237 238 241 246 249 252 252 252 251 250 249 249 248 246 243 240 239 240 239 241 245 247 249 252 253 255 257
133 75 53 5 15 36 59 63 356 304 303 330 333 307 288 272 270 282 279 287 292 286 287 282 274 264 259 260 254 254 256 258 256 258 262 259 287 267 214 209 210 211 215 220 224 226 225 221 221 222 223 224 224 225 224 225 226 229 234 239 244 247 249 252 254 253 252 252 254 255 254 253 252 251 249 247 245 242 242 245 249 253 255 257 256
152 161 188 265 13 77 91 74 41 25 5 356 356 342 319 288 263 277 292 294 289 280 278 286 292 295 270 255 257 258 260 263 262 262 261 262 273 288 237 230 220 214 216 217 219 223 223 221 221 223 225 226 226 227 229 228 228 228 231 236 243 248 250 250 252 252 251 249 251 254 254 255 255 255 256 254 254 251 247 247 249 253 255 256 256
115 125 150 172 143 147 127 77 61 58 48 25 3 341 347 354 341 317 314 301 280 275 283 296 302 307 303 288 272 265 268 270 267 262 257 265 276 269 271 282 265 240 227 220 218 217 218 220 221 222 223 226 227 228 230 231 231 230 230 232 237 246 250 250 250 250 249 248 248 250 251 253 254 255 257 257 257 257 256 255 256 259 259 259 259
90 92 104 109 118 119 112 89 60 57 57 45 19 5 358 353 351 349 335 319 295 291 313 321 296 300 307 308 305 292 285 284 280 271 260 263 278 275 270 280 277 259 239 228 224 219 218 219 220 222 224 226 229 230 231 232 233 233 232 231 233 239 247 250 251 250 250 249 248 249 250 251 253 254 256 258 257 258 258 259 261 264 264 264 263
81 81 95 104 108 101 97 97 62 39 55 61 44 32 17 359 6 0 334 326 322 318 323 324 310 299 293 304 322 313 300 297 290 277 264 253 256 274 272 263 254 246 240 233 228 227 224 223 224 225 227 230 232 233 233 234 235 235 234 234 233 234 240 246 250 251 250 250 249 250 250 251 252 253 254 256 257 258 260 262 264 266 268 270 269
65 71 79 90 97 87 90 101 88 70 70 96 122 101 111 188 61 34 338 331 343 346 342 345 338 313 289 294 316 315 305 295 285 272 262 239 222 237 237 234 239 242 243 237 231 231 229 229 231 228 228 230 230 231 233 234 234 236 235 235 235 235 237 242 247 250 250 250 251 251 251 252 252 252 253 254 257 259 261 264 266 268 270 272 274
59 66 62 64 78 80 95 105 102 107 81 75 92 95 84 60 49 41 15 356 2 9 7 1 350 324 301 305 308 305 299 285 278 273 264 243 238 245 233 226 237 245 248 243 236 234 231 230 234 234 231 230 230 229 229 233 233 234 236 236 236 237 239 242 245 248 250 251 252 253 253 252 252 252 253 254 256 258 261 264 267 269 271 273 275
81 78 71 69 78 84 92 80 86 104 41 55 71 79 80 52 17 10 12 354 346 359 357 350 348 336 326 331 324 305 294 292 287 285 279 265 266 271 259 236 233 242 249 246 234 234 238 236 236 239 237 233 236 236 234 236 238 237 236 236 238 240 243 245 245 247 250 251 253 254 254 253 253 254 255 256 257 258 260 263 265 268 270 272 274
96 99 93 87 85 82 76 61 58 51 36 54 61 59 69 64 10 351 356 345 335 345 336 331 357 352 336 331 330 318 303 303 297 295 301 288 277 273 264 243 236 245 254 248 234 232 238 239 240 245 245 238 238 241 242 240 240 241 238 237 241 244 247 248 248 249 250 251 252 253 255 255 256 257 258 259 260 261 262 263 265 267 269 271 272
102 106 97 86 81 81 75 64 56 43 39 52 52 45 43 43 41 30 13 2 356 356 339 311 290 320 337 329 339 333 313 323 334 326 330 324 291 267 258 256 247 249 255 247 235 231 235 242 247 252 248 241 242 246 248 246 244 243 241 244 248 250 251 251 251 251 251 252 253 254 255 258 260 261 262 262 262 264 265 265 266 267 268 269 270
96 98 98 91 87 83 77 72 65 53 51 55 56 47 42 46 44 34 25 19 11 7 8 2 313 295 329 105 82 325 281 340 341 323 326 335 308 287 287 287 268 260 258 248 238 236 245 250 248 254 254 250 256 262 253 247 250 249 247 252 256 256 256 255 254 254 254 254 254 255 257 258 261 263 265 266 266 266 266 267 267 268 269 269 269
97 97 98 93 90 85 77 77 72 65 61 57 59 54 45 53 53 43 35 29 14 358 4 16 3 311 201 194 161 193 236 339 331 315 324 329 316 303 297 292 286 279 261 248 241 236 248 255 244 249 258 247 248 261 257 245 253 260 258 257 258 256 254 252 254 257 258 259 258 258 258 259 261 262 264 266 268 268 268 268 268 269 269 269 269
107 103 100 93 92 88 80 79 72 71 71 60 57 54 44 47 46 37 31 28 16 2 4 9 356 314 341 293 227 228 242 313 325 303 318 318 310 304 297 286 285 286 274 267 267 247 241 250 250 253 264 241 230 255 264 257 256 264 265 263 259 256 254 253 256 259 260 261 261 260 260 260 260 260 261 264 266 268 269 269 269 270 269 269 268
114 108 104 97 92 87 82 82 74 66 70 72 68 54 44 45 41 34 30 26 23 15 7 5 349 317 353 335 272 268 258 253 250 271 317 317 306 298 294 285 280 284 282 275 284 294 284 274 275 276 280 285 284 280 269 259 264 270 266 267 266 262 262 263 260 256 255 257 260 261 260 259 258 257 257 258 260 262 265 267 268 269 269 269 269
125 117 109 101 95 90 84 83 79 63 58 80 78 57 46 43 38 44 41 32 30 18 2 1 357 349 356 345 318 308 282 255 245 247 249 271 300 296 290 285 271 264 269 271 278 294 298 294 293 287 279 285 288 281 271 261 270 278 268 265 267 265 264 266 263 257 254 258 262 263 262 260 258 257 257 257 257 257 258 260 262 265 267 267 268
135 126 118 111 102 95 90 84 80 69 55 63 66 49 47 46 37 42 37 35 37 24 11 5 356 351 349 344 338 328 310 288 275 274 276 284 294 288 296 296 269 247 246 251 261 268 277 283 284 280 273 269 266 266 270 267 267 271 268 264 264 263 261 260 260 258 258 262 265 266 266 265 262 260 260 259 258 258 258 258 259 260 262 263 265
144 138 131 127 116 104 99 86 75 75 58 50 56 47 46 44 36 33 26 26 25 12 9 359 347 344 341 339 337 328 323 322 324 332 336 335 332 318 326 334 323 290 265 251 260 265 272 280 284 290 287 277 269 269 274 277 273 265 258 256 255 253 252 251 252 253 255 260 264 268 272 272 271 267 264 262 260 260 260 260 260 260 261 262 263
154 147 140 137 128 115 102 89 77 74 59 47 52 47 45 37 21 19 16 13 4 353 359 357 349 346 339 339 338 335 337 323 321 331 333 334 344 338 334 332 329 326 317 313 315 304 296 298 299 301 298 291 286 281 279 279 278 264 247 245 245 243 244 245 246 250 254 259 264 269 273 274 275 273 269 267 264 263 262 262 262 262 262 262 262
161 152 148 144 133 124 110 101 96 79 61 52 50 41 41 25 4 3 2 357 351 348 353 346 337 333 329 334 331 326 328 320 323 338 342 339 338 316 313 316 315 317 318 323 328 321 312 306 299 292 286 285 284 287 291 288 280 266 242 233 233 234 237 237 242 249 254 261 267 272 275 276 277 276 273 270 268 267 266 265 265 265 264 264 263
167 161 157 153 144 141 133 118 100 83 65 55 47 32 29 18 3 358 354 353 349 341 338 331 325 323 316 316 318 318 322 326 335 344 342 336 329 309 305 313 314 316 317 318 315 307 302 295 291 285 277 284 294 298 307 304 268 256 256 259 262 262 267 264 262 267 269 271 275 276 279 280 279 277 275 273 271 269 268 267 266 266 266 266 265
172 167 162 160 155 150 145 137 123 105 86 63 47 28 20 18 7 356 353 351 340 330 326 322 317 315 311 304 307 315 319 323 328 326 324 326 329 337 342 331 324 319 312 307 304 304 306 303 302 301 295 300 307 309 330 5 74 20 3 342 321 308 294 288 287 289 288 287 287 287 286 284 282 279 278 277 275 273 271 269 268 267 267 267 266
173 168 165 164 161 155 148 141 136 127 110 80 58 34 15 14 6 354 351 342 331 330 328 323 317 310 309 307 306 305 303 306 311 312 318 332 342 348 349 334 319 314 309 309 311 311 315 318 314 320 336 340 327 329 349 4 16 9 6 358 342 330 313 302 297 295 295 294 293 292 291 289 286 284 282 281 280 278 276 273 271 270 269 268 267
171 168 167 166 161 159 154 147 142 137 127 107 68 34 9 7 0 346 344 336 329 333 329 322 317 314 314 312 308 305 305 311 313 315 325 335 341 339 332 328 324 318 313 311 312 308 314 325 322 321 337 346 344 344 342 335 333 340 345 343 335 327 321 314 306 299 296 293 290 289 288 287 286 284 283 283 282 282 281 279 276 274 272 270 269
171 169 169 169 165 163 161 155 149 146 143 133 100 50 10 356 348 339 338 334 330 330 325 318 311 314 320 320 319 317 315 319 318 322 335 339 331 327 328 334 333 321 309 307 314 317 320 330 328 320 327 338 340 336 328 323 324 327 330 329 322 317 314 310 303 299 295 290 286 284 283 283 281 279 279 279 279 280 281 282 281 279 276 273 270
170 170 172 172 170 167 166 162 157 157 156 152 146 99 26 347 338 334 329 329 331 325 318 313 309 313 318 318 322 325 323 324 320 322 333 331 317 309 310 313 306 293 290 300 303 309 317 324 322 319 322 325 329 329 323 319 319 320 322 322 320 316 311 305 298 297 294 290 286 283 283 283 281 280 279 277 276 275 275 276 278 279 278 275 273
171 171 173 174 174 174 173 172 169 167 167 168 173 162 9 338 331 328 325 326 325 319 314 313 317 322 321 315 314 314 314 313 309 310 316 314 308 302 296 293 294 298 304 304 290 295 305 310 309 310 313 314 317 319 317 315 315 317 319 319 318 314 310 305 301 298 294 291 290 288 286 285 284 286 286 284 281 278 274 272 272 274 275 276 275
173 173 174 175 178 181 181 182 180 177 177 182 192 203 295 332 329 316 317 319 314 313 322 331 330 321 314 311 308 308 312 314 315 311 303 302 304 305 307 306 303 302 302 298 286 285 292 292 294 300 303 306 310 312 312 314 315 316 316 315 313 310 309 306 302 299 297 296 294 292 289 287 285 287 288 289 288 286 283 278 273 272 272 273 274
176 175 177 180 182 185 188 190 188 186 188 194 197 205 265 320 317 309 307 310 315 322 329 330 319 306 303 306 306 306 309 312 314 310 304 305 302 300 306 307 301 296 293 292 289 290 295 293 295 304 310 313 315 315 318 319 317 316 314 312 310 308 308 307 304 302 301 300 300 299 297 294 289 285 285 286 286 285 284 282 279 277 275 274 274
179 179 181 184 186 190 193 194 194 195 198 199 196 205 262 295 298 304 297 295 308 315 314 309 305 309 315 316 316 319 317 316 316 314 318 325 325 316 310 305 306 308 308 308 311 313 311 310 314 319 322 324 322 319 319 318 318 317 314 313 313 312 312 312 312 311 307 307 310 312 313 312 305 294 286 284 285 284 283 282 280 279 278 277 276
184 183 184 186 188 194 198 198 199 199 199 204 210 226 255 261 282 295 287 288 294 298 303 306 308 314 319 315 316 319 319 319 320 319 320 323 324 319 313 312 317 322 326 330 334 336 329 325 327 326 324 324 322 318 315 314 314 314 314 314 316 316 315 315 314 313 311 312 315 320 325 327 327 321 306 294 289 288 287 285 284 282 281 280 279
191 187 186 188 188 197 204 203 203 204 205 214 220 234 249 245 252 268 269 285 294 300 308 312 311 311 312 308 305 310 312 313 315 313 309 309 308 305 309 316 321 323 325 329 334 335 332 327 325 324 320 318 315 311 310 310 312 314 314 314 315 316 317 319 320 318 317 317 318 321 323 322 327 333 327 317 309 302 296 292 289 288 287 286 284
199 194 192 192 190 197 208 210 210 207 208 217 220 230 251 243 230 232 245 272 287 298 302 302 305 306 307 308 309 310 311 307 305 301 297 299 301 301 312 322 324 323 323 324 324 324 322 321 319 316 310 305 304 306 308 314 319 320 316 315 318 324 330 331 330 328 327 325 322 321 320 318 320 326 328 325 320 314 307 301 296 292 291 289 287
209 206 204 205 202 199 203 213 219 213 206 212 217 223 241 241 228 231 241 261 276 286 292 292 297 304 307 310 313 315 313 306 301 299 299 305 307 307 322 330 327 321 318 318 316 313 313 312 309 306 302 300 304 307 311 316 318 317 319 323 328 334 336 334 332 331 329 327 325 325 325 325 324 324 322 319 317 317 317 313 307 300 296 292 289
221 217 217 222 215 204 202 210 218 215 202 200 209 218 227 228 221 225 239 263 276 280 285 287 290 298 301 298 300 305 302 289 289 298 293 297 301 303 328 337 330 323 320 316 310 307 307 307 305 305 305 304 305 307 313 321 322 324 332 336 332 333 335 334 331 329 327 326 327 327 328 326 322 318 315 313 312 310 309 311 311 307 305 301 294
230 223 221 229 224 211 210 210 208 206 202 204 216 217 212 210 208 223 253 261 269 275 279 285 287 286 286 285 287 301 306 295 293 299 292 291 293 292 309 327 320 315 315 313 308 306 305 305 306 306 305 304 307 315 326 335 337 336 338 335 329 329 332 330 327 326 325 326 328 327 326 325 322 320 319 316 313 309 303 302 302 301 307 310 304
237 232 225 229 227 212 207 212 205 203 206 211 213 201 191 195 198 202 245 258 263 273 276 278 282 283 285 285 276 283 325 331 318 310 307 301 297 295 300 307 303 300 300 300 301 303 302 303 305 305 306 309 318 330 336 340 339 334 332 332 329 328 327 322 320 324 327 327 328 326 325 325 322 321 320 318 317 314 309 304 300 297 301 307 308
237 234 225 229 230 208 198 209 213 208 209 212 212 208 206 218 222 212 225 250 263 271 273 272 276 278 280 284 276 270 299 322 317 314 326 331 326 321 317 303 285 283 288 289 291 293 294 298 302 307 311 315 324 331 331 331 333 332 334 334 327 323 323 321 320 325 331 334 333 327 323 325 323 320 319 317 315 314 313 311 308 302 299 299 299
234 231 225 226 229 206 192 205 214 209 211 215 219 222 227 239 242 227 224 236 256 265 266 266 270 269 268 275 278 277 286 299 299 302 322 333 329 327 333 315 273 259 266 283 294 295 293 295 301 307 312 314 319 322 322 324 328 331 331 327 323 324 328 326 321 322 328 335 334 326 322 325 325 319 317 316 316 317 317 314 310 305 303 301 297
231 228 222 217 219 211 201 211 219 213 214 222 225 227 234 245 253 234 226 228 246 259 259 258 261 267 269 270 271 273 275 275 277 286 297 305 303 296 309 311 287 267 258 255 267 279 276 283 298 302 301 306 313 315 316 319 322 324 323 320 322 326 324 320 315 312 318 326 326 317 315 323 325 317 314 317 319 320 316 310 307 304 303 302 300
228 224 218 208 209 212 209 217 226 217 214 223 228 229 236 248 263 247 232 228 236 253 260 261 263 266 263 259 258 259 260 262 265 270 281 299 308 302 300 299 292 282 263 248 251 258 250 252 276 289 290 293 298 299 296 296 301 307 311 310 313 314 311 310 307 305 311 319 315 303 305 318 324 318 315 318 322 321 314 309 312 311 307 306 305
226 220 215 210 213 216 213 219 230 224 218 223 228 229 234 248 265 253 237 229 228 244 259 261 264 263 255 251 251 251 254 252 242 238 247 282 307 306 296 289 289 284 266 253 256 256 249 249 258 267 277 282 283 286 286 281 282 285 289 294 296 296 300 305 305 305 310 318 316 305 304 315 323 322 319 320 324 324 316 314 325 331 326 321 318
223 215 211 213 218 218 212 216 225 226 223 227 230 229 231 244 259 252 240 228 221 231 247 249 250 251 246 245 245 246 252 245 234 236 246 265 289 299 294 288 289 288 278 276 274 262 251 251 256 264 275 279 276 277 279 275 271 276 282 287 291 296 301 307 309 308 313 322 325 322 315 317 327 329 323 324 329 330 324 335 351 358 354 345 339
218 211 210 215 218 215 210 212 221 225 223 224 226 226 229 243 251 241 228 216 212 223 235 235 239 245 242 240 240 238 243 244 243 248 257 274 292 298 293 292 296 297 292 286 281 268 246 256 276 282 279 277 272 270 270 267 265 271 280 287 299 307 307 312 316 315 318 325 332 338 332 328 336 336 328 328 333 335 2 34 29 29 26 21 20
211 210 212 216 216 212 208 209 218 222 218 216 220 224 232 243 244 232 217 209 213 224 227 223 229 236 235 236 236 234 235 241 246 252 262 282 297 292 290 295 296 296 297 283 266 265 267 283 296 297 283 278 283 280 273 268 265 265 269 282 303 316 314 318 321 317 319 324 336 349 344 334 335 336 331 330 334 348 50 57 49 49 51 50 51
209 210 213 214 213 210 211 215 219 220 218 218 221 224 232 241 238 225 210 209 224 231 225 220 225 228 229 229 223 223 231 240 246 253 267 288 294 280 282 293 292 291 291 264 250 280 290 295 302 303 289 290 296 289 276 267 263 257 259 274 300 311 308 313 315 313 317 322 335 347 340 327 327 333 333 332 334 2 49 52 47 52 60 64 62
212 214 214 213 210 209 212 217 220 218 218 221 221 222 230 237 233 224 212 214 234 240 228 219 225 227 227 226 218 217 228 239 248 259 274 288 288 273 267 277 285 285 279 275 283 291 294 296 300 303 300 303 307 302 286 266 259 252 252 276 302 293 287 300 309 312 315 317 327 337 335 322 320 329 334 333 331 353 23 34 43 54 66 68 60